Meteo Giornale » Osservazioni meteo Svezia » Angelholm

ore: 19:20 - Osservazioni Meteo Angelholm
Lat. 56° 17' N Lon. 12° 50' E Alt. 47 metri s.l.m.

nuvoloso

17 °C

Nuvoloso

Temp. 24 Ore

12 °C

19 °C

Ovest

13 Km/h

Dew point 16 °C

Umidità 93 %

Visibilità  10 Km

Il sole sorge alle ore 06:12

Il sole tramonta alle ore 20:04

Data e Ora Cielo e Fenomeni T °C DP °C Um. % Pres. hPa Vis. km Vento km/h
Oggi h: 19:20 nuvoloso Nuvoloso 17 16 93 1012 10 O 13
Oggi h: 18:50 coperto_pioggia Pioggia 18 15 82 1012 6 O 9.3
Oggi h: 18:20 nuvoloso Nuvoloso 18 15 82 1012 10 O 11.1
Oggi h: 17:50 molto_nuvoloso Molto Nuvoloso 18 15 82 1012 10 O 14.8
Oggi h: 17:20 nuvoloso Nuvoloso 18 15 82 1012 10 O 14.8
Oggi h: 16:50 nuvoloso Nuvoloso 19 14 72 1012 10 O 18.5
Oggi h: 16:20 poco_nuvoloso Poco Nuvoloso 19 14 72 1012 10 O/NO 16.7
Oggi h: 15:50 poco_nuvoloso Poco Nuvoloso 19 14 72 1012 10 O 18.5
Oggi h: 15:20 nuvoloso Nuvoloso 18 14 77 1012 10 O 18.5
Oggi h: 14:50 poco_nuvoloso Poco Nuvoloso 19 14 72 1012 10 O 20.3
Oggi h: 14:20 nuvoloso Nuvoloso 19 14 72 1012 10 O 18.5
Oggi h: 13:50 molto_nuvoloso Molto Nuvoloso 18 15 82 1012 10 O 20.3
Oggi h: 13:20 molto_nuvoloso Molto Nuvoloso 18 15 82 1012 10 O 25.9
Oggi h: 12:50 molto_nuvoloso Molto Nuvoloso 18 15 82 1011 10 O 24
Oggi h: 12:20 molto_nuvoloso Molto Nuvoloso 18 16 88 1011 10 O 24
Oggi h: 11:50 molto_nuvoloso Molto Nuvoloso 18 15 82 1011 10 O 22.2
Oggi h: 11:20 molto_nuvoloso Molto Nuvoloso 18 15 82 1010 10 O 18.5
Oggi h: 10:50 molto_nuvoloso Molto Nuvoloso 18 15 82 1010 10 O/NO 20.3
Oggi h: 10:20 molto_nuvoloso Molto Nuvoloso 17 15 88 1010 10 O/NO 20.3
Oggi h: 09:50 molto_nuvoloso Molto Nuvoloso 17 15 88 1009 10 O/NO 18.5
Oggi h: 09:20 molto_nuvoloso Molto Nuvoloso 17 15 88 1009 10 O/NO 18.5
Oggi h: 08:50 molto_nuvoloso Molto Nuvoloso 17 15 88 1009 10 O/NO 14.8
Oggi h: 08:20 molto_nuvoloso Molto Nuvoloso 16 15 93 1009 10 O/SO 7.4
Oggi h: 07:50 molto_nuvoloso Molto Nuvoloso 16 15 93 1009 10 O 11.1
Oggi h: 07:20 molto_nuvoloso Molto Nuvoloso 16 15 93 1009 10 O 7.4
Oggi h: 06:50 molto_nuvoloso Molto Nuvoloso 16 15 93 1008 10 O/SO 7.4
Oggi h: 06:20 molto_nuvoloso Molto Nuvoloso 16 15 93 1008 10 SO 9.3
Oggi h: 05:50 molto_nuvoloso Molto Nuvoloso 16 15 93 1008 10 SO 13
Oggi h: 05:20 molto_nuvoloso Molto Nuvoloso 16 15 93 1008 10 O/SO 14.8
Oggi h: 04:50 molto_nuvoloso Molto Nuvoloso 15 15 100 1008 10 S/SO 9.3
Oggi h: 04:20 coperto_pioggia Pioggia 14 14 100 1008 7 S/SO 9.3
Oggi h: 03:50 nebbia Nebbia 12 12 100 1008 1 S/SE 9.3
Oggi h: 03:20 foschia Foschia 12 12 100 1008 0.45 N 5.5
Oggi h: 02:50 nebbia Nebbia 12 12 100 1008 0.45 SE 7.4
Oggi h: 02:20 foschia Foschia 13 13 100 1008 5 S/SE 7.4
Oggi h: 01:50 molto_nuvoloso Molto Nuvoloso 13 12 93 1008 8 SE 7.4
Oggi h: 01:20 coperto Coperto 13 13 100 1008 10 E/SE 7.4
Oggi h: 00:50 molto_nuvoloso Molto Nuvoloso 14 14 100 1008 10 S 9.3
Oggi h: 00:20 coperto Coperto 13 13 100 1008 10 S/SE 7.4
Ieri h: 23:50 nuvoloso Nuvoloso 13 13 100 1008 9 E/SE 7.4
Ieri h: 23:20 nuvoloso Nuvoloso 14 14 100 1007 10 S 9.3
Ieri h: 22:50 sereno Sereno 13 13 100 1007 10 S 9.3
Ieri h: 22:20 sereno Sereno 15 14 93 1007 10 S/SE 7.4
Ieri h: 21:50 sereno Sereno 14 13 93 1007 10 N 0
Ieri h: 21:20 poco_nuvoloso Poco Nuvoloso 15 14 93 1007 10 N 3.7
Ieri h: 20:50 nuvoloso Nuvoloso 17 15 88 1007 10 N 5.5
Ieri h: 20:20 poco_nuvoloso Poco Nuvoloso 17 14 82 1007 10 S/SO 9.3
Ieri h: 19:50 poco_nuvoloso Poco Nuvoloso 18 14 77 1007 10 S/SO 9.3